Погода в Холме

Погода в Холме : погода сейчас, прогноз погоды и архив. Всё, что Вы хотите узнать о погоде в Холме!

Поиск расширенной информации на нашем сайте:

Другие новости

Новости СМИ2

Главная страница сайта

Новости сайта

03.07.2017

Напоминаем, что на нашем специализированном сайте Метеоцентр.Азия вы можете получить высокодетализированные автоматические прогнозы погоды по пунктам России, СНГ и мира в авиационном формате (включающие направление и скорость ветра, видимость, явления погоды, количество и форму облачности, нижнюю и верхнюю границу облачности).


Погода в Холме - сегодня

Время (UTC), дата Ветер
(°,м/с) 
Видим.   Явления Облачность Т
(°С)
Тd
(°С)
f(%) Тe
(°С)
Pmin
(гПа)
dP
(гПа)
Po
(мм)
O2
(г/м3)
Тmin Tmax R s Состояние
почвы
15 19.07.17 220 (ЮЗ) 20000 м  {ливн. осадки}  3/3 600 м кучево-дожд., средняя 
[Cb cap|Ac trans]
+19.7 +8.9 50 +21  1015.5  -1.1  755  282      0.5     
18 19.07.17 190 (Ю) 20000 м  {ливн. осадки}  3/0 средняя, верхняя 
[Ac cast|Ci fib]
+15.2 +11.3 78 +19  1015.6  755  286    +20.3  0.5     
21 19.07.17 тихо ()   20000 м    3/0 средняя 
[Ac trans]
+9.2 +8.4 95 +9  1015.7  0.1  755  293           
00 20.07.17 190 (Ю) 10 км    8/0 средняя 
[Ac trans]
+11.3 +10.7 96 +14  1015.3  -0.3  755  290           
03 20.07.17 180 (Ю) 20000 м    8/0 средняя 
[Ac lent]
+11.9 +10.8 93 +15  1014.8  -0.4  755  289  +8         
06 20.07.17 150 (ЮВ) 10 км  слаб. ливневой дождь  9/6 630 м кучево-дожд., средняя 
[Cb cap|Ac lent]
+12.4 +11.6 95 +17  1014.8  755  289  +8      затоплена
водой 
09 20.07.17 180 (Ю) 20000 м  {ливн. осадки}  8/4 600 м средняя 
[Cu med, cong|Ac trans]
+18.5 +12.5 68 +24  1013.8  -0.8  754  282           
12 20.07.17 150 (ЮВ) 20000 м  {ливн. осадки}  9/3 600 м кучево-дожд., средняя, верхняя 
[Cb cap|Ac trans|Ci sp]
+17.9 +13.7 76 +25  1012.7  -1.1  753  282           
15 20.07.17 280 (З) 20000 м    8/3 600 м кучево-дожд., средняя, верхняя 
[Cb cap|Ac lent|Ci sp]
+18.9 +8.2 50 +20  1012.1  -0.5  753  282      11     
18 20.07.17 тихо ()   10 км    8/0 средняя 
[Ac trans]
+16.8 +11.1 69 +19  1012.2  753  284    +20.9     
21 20.07.17 270 (З) 20000 м    6/3 600 м кучево-дожд., средняя 
[Cb cap|Ac trans]
+12.3 +11.1 92 +17  1013.2  0.9  753  288           
00 21.07.17 тихо ()   4000 м  дымка  3/0 средняя 
[Ac lent]
+7 +6.4 96 +7  1013.5  0.2  754  295           
03 21.07.17 тихо ()   10 км    8/0 средняя 
[Ac lent]
+8.1 +7.6 97 +8  1014.3  0.8  754  294  +5.5         
06 21.07.17 310 (СЗ) 20000 м    8/0 средняя 
[Ac trans]
+14.6 +11.3 81 +19  1014.7  0.6  755  287  +5.5        мокрая 
09 21.07.17 350 (С) 20000 м    8/4 600 м средняя 
[Cu med, cong|Ac lent]
+18 +10.5 62 +21  1015.4  0.7  755  284           
12 21.07.17 260 (З) 20000 м    8/3 600 м средняя 
[Cu med, cong|Ac lent]
+20.7 +8.6 46 +21  1015  -0.3  755  281           
15 21.07.17 330 (СЗ) 20000 м    6/4 600 м средняя 
[Cu hum|Ac trans]
+21.4 +9.1 45 +21  1014.9  0.1  755  281           
18 21.07.17 330 (СЗ) 20000 м    3/0 средняя 
[Ac trans]
+16.3 +10.7 69 +20  1015.9  0.9  756  285    +22.3       
21 21.07.17 тихо ()   20000 м    3/0 средняя 
[Ac trans]
+8.2 +7.5 95 +8  1016.5  0.4  756  294           
00 22.07.17 тихо ()   10 км    3/0 средняя 
[Ac trans]
+6.2 +5.6 96 +6  1016.7  0.2  756  297           
03 22.07.17 тихо ()   20000 м    4/0 верхняя 
[Ci fib]
+7.8 +7.3 97 +8  1017  0.3  756  295  +4.7         
06 22.07.17 тихо ()   20000 м    1/0 средняя 
[Ac trans]
+17.1 +12.2 73 +21  1016.9  0.3  756  284  +4.7        мокрая 
09 22.07.17 320 (СЗ) 20000 м    6/4 600 м средняя 
[Cu med, cong|Ac trans]
+19 +10.5 58 +23  1016.9  756  283           
12 22.07.17 330 (СЗ) 20000 м    6/4 600 м средняя 
[Cu med, cong|Ac lent]
+22.8 +9.1 42 +23  1016.3  -0.5  756  280           
15 22.07.17 310 (СЗ) 20000 м    6/3 600 м средняя 
[Cu med, cong|Ac lent]
+20.9 +9.7 49 +22  1016.3  756  281           
Время (UTC), дата Ветер
(°,м/с) 
Видим.   Явления Облачность Т
(°С)
Тd
(°С)
f(%) Тe
(°С)
Pmin
(гПа)
dP
(гПа)
Po
(мм)
O2
(г/м3)
Тmin Tmax R s Состояние
почвы

Для получения пояснительной информации подведите курсор к названию столбца.

ПОГОДА в Холме - архив

Всё, что Вы хотите узнать о погоде в Холме - удобно и подробно!

Выберите нужную дату (начиная с 1 января 2015* года) и нажмите кнопку "Найти".
Будут отображены архивные сводки погоды по пункту Холм, начиная с указанной даты.


Отображать данные в формате CSV (для использования в таблицах Excel)


Внимание! Наш архив погоды предназначен исключительно для личного некоммерческого использования в познавательных целях. Если Вам необходимы официальные справки о состоянии погоды (для производственных, юридических, коммерческих и т.п. целей), обращайтесь в органы Росгидромета.

*Примечание: данная дата относится к архиву по метеостанциям СССР (Россия, СНГ, Балтия).
Архив по метеостанциям Зарубежной Европы и Азии (кроме Китая) хранится 10 дней, по другим регионам земного шара (Китай, Африка, Америка, Австралия, Океания) - 1 день.

Холм - район местоположения метеостанции


Название, широта, долгота, высота метеостанции:
Холм 57.2°ш. 31.2°д. 71 м над ур. моря [Российская Федерация]

Дополнительная информация

В oтличие oт бoльшинства пoгoдных сайтoв мы публикуем пoдрoбную метеoинфoрмацию в детальнoм прoфессиoнальнoм фoрмате.

Характеристики температуры и влажнoсти вoздуха измеряются на высoте 2 м в тени вдали oт зданий и деревьев.
Скoрoсть ветра измеряется на высoте 10 м (на урoвне рoста челoвека скoрoсть ветра ниже в 1.5-2 раза). Если метеoстанция нахoдится в гoрoде или в лесу, тo скoрoсть ветра занижена на 2-4 м/с пo сравнению с oткрытым местoм. Скoрoсть ветра над акватoриями крупных рек и oзёр, а также на вершинах хoлмoв на 2-5 м/с выше, чем в oбычных услoвиях.
Атмoсфернoе давление в разных тoчках местнoсти мoжет значительнo oтличаться oт давления на метеoстанции, в зависимoсти oт услoвий рельефа (при пoдъёме на 10 м давление пoнижается примернo на 1 мм рт.ст.).